STARLINK-1296 (45412 NORAD) Tracking and Keplerian Element Data

This shows tracking and keplerian element data for the satellite.

Feedback or suggestion? Click here.




ElementValue
Catalog45412
NameSTARLINK-1296
Epoch Orbit181
Epoch Day188.91667824
Epoch Year2020
RAAN77.3067
Inclination52.9985
Eccentricity0.0001371
Argument of Perigee86.3836
Mean Anonmoly161.673
Mean Motion15.143363
Decay Rate-0.01060021
L11 45412U 20019BE 20188.91667824 -.01060021 00000-0 -61655-1 0 9996
L22 45412 52.9985 77.3067 0001371 86.3836 161.6730 15.14336300 1812

Live tracking and technical data element details for STARLINK-1296 (NORAD 45412). STARLINK-1296 can be tracked NOW for your location showing map with azimuth and elevation plus other details from your city location.

Track the satellite on the map from your city or location and see movement details for azimuth, elevation, latitude, longitude, range, height, and movement on the map or in text.







IsCatalogInMostPopularTable: catalog: 45412, numindb: 33
Update: records affected: 1



GetName: 45412 STARLINK-1296

Hit Count: updated at: Wed, 08 Jul 2020 04:43:34 GMT